SL-12 DEB, 43527

Orbit data source: Space-Track

SL-12 DEB, 43527 is space debris in HEO originally from a launch on Mon, 01 Mar 2010 UTC launched from the Tyuratam Missile And Space Complex (TTMTR). Debris objects in space refer to the collection of defunct objects orbiting the Earth. Examples of debris include non-operational satellites, rocket bodies, and fragments generated from explosions, collisions, or faulty payload assembly.

Loading next visibility...
Identifier
43527, 2010-007Z
Orbit
HEO
Country
Flag of CISCIS
Related business
Manufacturer
RKKE
Mission
Spacecraft
Bus & Motor
Unknown
Mass
Unknown
Launch date (UTC)
2010-03-01 (16 years ago)
Launch vehicle
Unknown
Launch site
Tyuratam Missile And Space Complex (TTMTR)
Object type
Payload
Rocket body
Debris
Shape & HBR
Unknown shape, 0.6 m
Radar Cross Section
Medium (>0.1 m² and <1 m²)

Expand to show TLE details & history
Last TLE update: 1 day ago

TLE from 1 day ago
0 SL-12 DEB
1 43527U 10007Z   25286.92714400  .00000306  00000-0  22995-2 0  9997
2 43527  65.0137 272.3358 5619739 306.6429  13.7708  4.26459511113463
Epoch: 2025-10-13T22:15Z
TLE epoch observation values (Epoch: 2025-10-13T22:15:05.241Z)
Latitude
-0.00006°
Longitude
-84.1524°
Altitude
1,858.785 km
Speed
8.485 km/s
True Right ascension
18h 09m 22s
True Declination
0° 00' 00"
Sunlit
Object was in daylight at epoch
Visualization orbit readout
Latitude
Unknown
Longitude
Unknown
Altitude
Unknown
Speed
Unknown
Apparent Right ascension
Unknown
Apparent Declination
Unknown
Sunlit
N/A
Visualization observer readout
Local Sidereal Time
00:38:19
Azimuth
Unknown
Elevation
Unknown
Doppler factor
Unknown
Orbital elements
Apogee altitude
18,709.528 km
Perigee altitude
657.225 km
Semi-major axis
16,061.513 km
Eccentricity
0.56197
Inclination
65.0137°
RAAN
272.3358°
Arg. of periapsis
306.6429°
True anomaly
53.26908°
Mean anomaly
13.7708°
Eccentric anomaly
29.74676°
Mean motion
1.06626 °/min
Orbital period
337.63 mins
BSTAR
0.0022995
Loading maneuver chart data...
Computing Atmospheric mass density...
Loading historical data...
Loading historical data...
Loading historical data...
Loading historical data...
Loading historical data...
Loading historical data...
Loading historical data...

Documentation

Showing up to 5 results
|